Theta_e
318 319 321 325 328 329 328 329 329 328 329 324 320 323 319 320 323 321 320 319 320 319 317 319 318 318 318 317 316 316 316 318 318 326 329 318 319 318 314 313 313 315 317 320 321 324 329 330 330 328 326 326 326 327 329 329 329 327 328 327 327 330 331 332 334 335 335 336 336 337 336 336 335 335 335 333 332 330 329 328 328 327 327 328 328 328 326 325 323 321 319 319 320 319 318 315 312
317 318 321 326 329 330 328 328 336 334 328 322 318 321 317 321 324 320 321 320 320 318 318 319 317 317 316 315 315 316 316 317 317 319 320 318 320 318 316 314 312 314 314 318 322 323 324 322 321 322 324 326 324 324 328 329 330 329 328 327 327 327 328 330 332 335 336 336 336 337 336 336 335 334 335 334 332 331 330 329 328 327 327 327 327 328 328 326 324 323 320 318 318 318 317 315 313
316 318 321 326 329 328 329 331 335 333 326 322 318 321 320 319 321 320 320 318 318 317 318 318 317 316 315 316 315 316 316 316 318 318 320 321 321 321 318 314 313 313 313 315 318 321 318 313 312 313 318 325 326 327 329 330 331 331 330 330 330 328 327 328 328 330 332 333 334 335 335 335 334 333 335 334 332 331 330 330 329 328 328 328 327 327 328 329 328 325 323 319 317 316 315 313 312
316 320 323 326 329 327 336 338 336 333 324 322 320 322 322 319 320 319 317 316 317 316 317 317 316 315 315 317 314 315 316 315 317 318 320 321 321 321 317 315 314 312 313 314 315 316 314 312 311 311 312 317 323 327 328 329 330 329 330 331 330 329 328 328 328 328 329 330 332 333 335 335 334 333 334 334 333 331 331 331 331 330 329 329 328 326 327 331 331 328 325 322 317 315 314 313 312
318 321 322 324 329 327 334 333 333 335 324 325 323 319 323 319 319 318 316 316 316 316 316 316 316 314 313 313 313 314 314 315 316 318 320 319 320 319 317 316 314 313 314 314 314 314 313 314 313 312 312 312 316 319 322 324 325 325 326 328 329 330 329 329 329 330 331 332 332 334 335 334 334 334 334 334 333 332 332 332 332 331 330 330 328 326 326 330 333 332 329 325 321 317 314 312 312
320 323 322 323 325 324 332 326 322 327 321 327 323 317 322 318 317 316 316 316 315 316 316 316 315 313 312 311 312 312 313 314 314 316 316 316 317 317 317 316 314 314 314 314 314 314 314 315 314 314 313 313 313 314 316 317 319 322 323 325 327 329 329 329 330 331 331 332 332 332 334 334 333 333 334 334 333 333 333 332 331 331 330 329 329 327 326 328 332 334 333 331 329 328 323 317 313
321 323 322 325 324 323 336 328 319 322 317 321 322 320 320 315 315 316 316 316 315 315 316 316 314 314 313 312 311 311 312 313 311 312 313 313 314 314 314 313 313 313 313 314 314 314 315 314 315 314 314 314 314 314 314 315 316 318 321 324 325 327 327 327 329 330 331 331 330 330 331 332 332 331 332 333 332 332 333 331 330 331 331 330 329 328 327 326 329 332 334 334 334 334 333 330 323
321 321 321 328 332 331 337 328 322 324 318 316 318 319 317 315 315 316 316 316 315 314 314 315 314 315 312 311 310 310 312 311 311 311 311 311 311 312 311 311 311 311 312 312 312 313 313 313 314 314 314 314 314 315 315 316 316 316 318 322 326 328 328 327 327 329 331 331 331 330 331 332 331 330 330 332 332 331 331 331 330 331 332 331 330 329 328 327 328 329 331 332 333 334 334 334 333
320 322 321 326 334 335 332 323 320 320 318 317 316 316 316 315 315 316 316 315 314 313 314 314 314 315 311 310 309 310 310 310 310 310 310 310 310 310 310 310 309 309 309 309 310 310 310 310 311 311 312 312 313 314 314 315 316 316 317 319 323 326 329 329 328 329 330 331 331 332 332 332 332 331 329 330 331 330 330 330 330 330 330 331 330 330 329 329 329 329 329 329 330 332 333 333 334
321 322 321 328 334 332 325 321 319 318 317 317 315 315 316 315 315 314 315 313 313 313 314 314 314 314 311 309 308 308 309 309 309 309 308 307 308 309 309 309 307 307 307 307 308 308 308 308 308 309 309 310 310 311 312 313 314 315 316 317 319 321 325 327 328 327 328 330 330 331 332 332 333 333 331 330 330 328 328 330 331 329 328 328 330 330 330 330 329 328 329 329 329 329 331 332 332
320 320 323 333 335 325 322 322 318 317 317 316 315 315 315 315 314 313 313 313 313 313 313 314 313 310 309 308 307 307 308 308 308 307 306 306 306 307 307 307 306 306 306 306 306 306 306 306 306 307 307 307 307 308 309 310 311 312 314 315 316 317 318 321 324 325 326 327 327 328 330 331 332 333 332 332 330 328 326 327 330 329 327 327 330 330 330 330 328 328 328 329 329 328 328 329 330
320 323 335 340 330 320 320 323 319 318 320 319 316 315 316 315 315 312 312 313 312 313 312 313 314 311 310 308 307 307 308 307 306 306 306 306 306 306 306 305 305 305 305 304 305 305 305 305 305 305 306 305 305 306 306 307 308 309 311 312 313 315 316 316 318 320 322 323 324 324 326 329 331 331 331 331 330 330 328 324 324 325 325 326 329 331 330 329 329 329 328 328 329 328 326 326 327
318 324 338 332 325 323 321 322 320 322 322 319 316 314 316 314 314 312 312 312 311 313 312 312 313 312 310 307 306 306 306 305 305 306 306 306 305 305 305 305 304 304 304 304 305 305 305 305 305 305 305 305 305 305 305 305 305 306 307 308 309 311 313 315 316 317 318 318 319 320 321 323 326 328 329 330 331 330 329 325 322 322 322 322 325 330 331 329 328 329 328 327 328 328 326 324 326
318 320 329 325 325 324 321 321 320 323 320 317 316 314 316 314 313 313 313 314 311 311 312 312 313 313 310 307 305 304 305 305 305 306 306 306 305 304 304 304 304 304 304 304 304 304 304 304 304 305 305 305 305 305 305 305 305 305 305 305 305 306 308 310 313 316 317 318 318 318 317 317 318 320 323 326 328 328 329 329 326 323 322 321 321 325 330 331 329 329 328 326 327 329 328 326 325
317 319 329 330 330 323 319 321 322 325 318 316 317 314 314 312 313 313 313 315 312 310 311 311 312 313 311 309 306 303 304 305 305 305 305 305 304 304 304 304 304 304 304 303 303 302 302 302 302 302 303 303 304 304 305 305 305 305 305 305 305 305 305 305 307 309 313 316 318 319 319 318 317 317 317 319 321 323 324 326 326 325 324 322 320 319 323 329 329 329 328 326 326 327 329 328 326
317 321 333 333 328 322 318 320 322 323 316 314 315 314 313 311 313 312 311 313 311 310 311 310 310 311 309 307 305 303 304 304 304 304 304 305 304 304 304 304 303 303 302 301 301 301 301 301 301 301 301 301 301 302 302 303 304 304 305 305 305 305 305 305 304 304 306 309 313 316 318 320 320 319 318 317 317 318 318 320 321 322 322 321 321 318 317 324 327 327 328 326 325 326 328 329 328
319 326 337 333 326 320 317 319 322 320 315 314 313 314 313 310 311 311 311 312 310 309 309 308 307 308 306 305 304 303 304 303 303 304 305 305 305 305 304 303 302 302 301 301 301 300 300 300 300 300 300 300 300 300 300 301 301 302 303 304 305 305 305 305 305 304 304 304 306 308 312 316 319 320 320 320 320 319 318 319 319 319 320 320 321 320 317 320 325 326 327 327 326 325 326 328 329
323 332 330 326 325 318 316 319 318 317 315 315 313 314 313 311 311 310 310 309 307 307 306 306 306 305 304 304 304 304 304 304 304 304 305 304 304 303 302 302 301 301 301 300 300 300 299 300 300 300 300 300 300 300 300 299 299 300 300 301 302 303 304 304 304 305 304 304 303 304 305 309 313 316 318 320 321 322 322 322 322 321 320 321 321 321 318 318 324 325 325 328 328 325 325 326 328
322 331 325 326 329 316 314 316 314 315 315 313 313 313 313 312 310 310 311 307 306 306 304 304 305 304 304 304 304 304 304 304 304 304 304 303 302 301 300 300 300 300 299 299 299 298 298 298 299 298 298 299 299 299 299 299 299 299 299 299 299 299 300 301 302 303 303 303 303 303 302 303 306 309 312 315 318 321 323 324 325 324 324 324 323 323 321 318 321 324 325 328 328 326 326 326 326
318 322 324 329 326 314 312 315 314 315 314 313 313 313 313 312 311 310 309 306 306 306 304 304 303 303 303 304 304 304 303 303 303 302 302 301 300 300 299 299 299 298 297 297 297 297 297 297 297 297 297 297 297 297 297 297 297 298 298 298 298 298 298 299 299 299 300 301 301 301 301 301 301 303 305 308 312 316 320 322 324 325 325 325 325 325 325 322 320 322 325 326 327 327 326 326 326
315 317 323 324 317 314 315 314 315 315 314 313 313 313 313 312 312 310 308 309 308 305 306 306 305 304 303 303 303 302 303 302 301 301 301 300 300 299 299 298 297 297 296 296 297 296 296 296 296 296 296 296 296 296 296 296 297 297 297 297 297 297 297 297 298 298 298 298 298 299 299 299 300 300 301 303 306 309 313 317 320 322 323 324 325 325 326 326 324 323 325 325 326 326 325 325 326
316 315 318 317 313 315 315 313 315 314 313 313 312 313 313 312 311 309 309 313 311 307 307 307 306 305 303 303 302 302 302 301 301 300 300 300 299 299 299 298 297 296 296 296 296 296 296 295 295 295 296 296 295 296 296 296 296 296 296 296 296 296 296 296 297 297 297 297 297 297 297 298 298 299 300 300 302 304 307 311 315 318 319 321 322 324 325 326 327 326 325 325 325 324 325 325 326
317 316 314 313 313 314 314 313 314 313 313 312 311 313 312 311 310 308 309 312 311 308 307 306 305 304 303 302 301 301 301 301 300 299 299 299 298 298 298 297 297 296 296 296 295 295 295 295 295 295 295 295 295 295 295 295 295 296 296 296 296 295 295 295 295 296 296 297 297 297 296 296 297 297 297 298 299 300 301 303 308 313 316 318 320 322 323 324 326 326 325 324 324 323 324 326 327
317 318 314 314 314 314 314 313 313 312 312 311 311 312 312 312 311 309 307 308 308 307 306 304 304 302 302 301 301 300 300 300 299 298 297 297 296 296 296 296 296 295 295 295 295 295 294 294 295 295 295 295 295 295 295 295 295 295 295 295 295 295 295 295 295 295 295 295 296 296 296 296 296 295 296 296 297 297 297 298 301 305 310 314 318 320 322 324 324 325 326 325 323 322 323 325 327
317 318 315 314 315 314 314 313 313 312 310 311 312 311 312 313 311 307 305 306 306 305 304 303 303 302 301 301 300 300 299 299 298 297 296 296 296 295 295 295 295 295 295 294 294 294 294 294 294 294 294 294 294 294 294 295 295 295 295 295 295 295 295 295 294 294 294 294 294 294 295 296 295 295 295 294 295 295 296 296 297 298 301 306 312 317 320 322 323 324 325 326 326 323 323 325 327
315 316 313 313 314 314 314 313 313 312 310 311 312 311 310 310 311 307 304 305 305 304 304 303 302 301 301 300 300 300 299 299 298 297 297 296 296 296 296 295 295 295 295 295 294 294 294 294 294 294 294 294 294 294 294 294 294 294 294 294 294 294 294 295 295 295 295 294 294 293 293 294 295 295 295 294 294 294 294 295 296 296 297 299 304 312 317 319 321 323 324 326 328 327 324 323 325
314 314 313 313 313 313 313 314 313 312 311 310 313 313 310 308 311 310 304 303 304 303 303 302 302 302 301 300 300 300 299 298 298 297 297 296 296 295 295 295 295 295 295 295 294 294 294 294 294 294 294 294 294 294 294 294 294 294 294 294 294 294 294 294 295 295 295 295 294 294 293 293 293 294 295 295 294 294 294 294 295 295 296 296 298 304 312 317 319 320 322 324 326 327 326 325 324
314 313 313 313 312 312 312 312 312 312 311 310 312 312 309 308 311 312 306 303 304 303 302 302 302 302 301 300 300 300 299 298 297 296 295 295 295 294 294 295 294 294 294 294 294 294 293 293 293 294 294 294 294 294 294 294 294 293 293 293 293 293 293 293 294 294 294 294 294 294 293 293 293 293 293 294 294 294 294 293 294 294 295 296 296 298 304 312 316 318 320 322 323 325 327 327 326
313 313 314 315 315 315 313 311 312 311 312 310 310 311 310 310 311 311 306 303 303 303 303 302 302 301 300 300 300 300 299 298 296 295 294 294 294 294 294 294 294 294 294 294 293 293 293 293 293 294 294 294 294 294 294 294 294 294 293 293 294 294 294 294 293 293 293 293 293 293 293 293 292 292 292 293 293 294 294 294 294 294 294 295 295 296 298 304 311 315 317 320 321 323 325 327 327
314 311 312 316 319 320 314 310 312 311 312 311 310 314 314 312 309 309 306 304 303 302 302 302 301 301 300 300 300 299 298 296 295 294 294 294 294 294 294 294 294 293 293 293 293 293 293 293 293 293 293 293 294 294 294 294 294 294 294 294 294 294 294 294 293 293 292 292 292 292 292 292 292 292 291 292 293 293 294 294 294 294 294 294 294 295 296 299 305 311 314 317 320 321 322 325 327
314 311 316 319 316 324 320 309 311 311 311 312 311 314 315 313 308 307 306 304 303 302 302 301 301 300 300 299 299 298 297 296 295 294 294 294 294 294 294 294 293 293 293 293 293 292 293 293 293 293 293 293 293 293 294 294 294 293 294 294 294 294 294 293 294 293 292 292 291 291 291 291 291 291 291 291 292 293 294 294 294 294 294 294 294 295 296 297 300 306 311 314 318 320 321 322 325
319 312 323 325 315 325 325 308 309 313 312 311 311 315 315 313 308 305 305 304 303 302 301 301 301 300 300 299 299 298 297 296 295 294 294 294 294 294 294 293 293 293 292 292 292 292 293 293 293 293 294 294 293 293 293 293 293 293 293 294 293 293 293 293 293 293 292 291 291 291 291 290 290 290 291 291 291 292 293 294 294 294 294 294 295 294 295 296 298 302 308 311 315 317 319 321 325
329 317 320 327 318 318 320 310 309 311 312 311 311 314 316 313 306 304 304 303 302 302 300 301 300 300 299 299 299 297 297 296 295 294 294 294 294 294 293 293 293 292 292 292 292 292 292 292 293 294 294 293 292 292 292 293 293 293 293 293 293 293 293 293 293 292 291 290 290 291 291 291 290 290 291 291 291 291 293 294 295 295 295 295 295 295 294 295 296 299 303 308 311 314 317 321 324
329 324 318 322 319 313 315 315 310 309 312 313 312 312 313 311 306 303 304 302 302 301 300 300 300 300 299 298 298 297 296 296 295 295 295 295 294 294 293 293 293 292 292 292 292 292 292 292 293 293 293 292 291 291 292 292 292 292 292 292 292 292 292 292 292 292 291 291 291 291 291 291 291 290 290 290 290 291 292 294 295 295 294 294 295 295 295 295 295 296 299 304 308 311 314 318 322
318 320 317 316 316 312 312 314 311 311 313 312 312 312 312 310 306 303 304 302 302 301 300 300 300 300 299 298 298 297 296 296 296 295 295 295 295 294 293 293 293 292 292 292 292 292 292 292 293 292 292 291 291 291 292 292 292 292 292 292 292 292 292 292 292 292 292 292 292 292 291 291 290 290 289 290 290 290 291 292 294 294 294 294 295 295 295 294 295 296 296 299 303 308 311 314 318
314 314 315 314 314 312 311 311 310 310 312 312 311 311 311 311 308 304 303 303 301 301 300 300 299 299 299 298 298 297 296 296 296 295 295 295 295 294 293 293 293 293 293 292 292 291 292 292 292 292 291 291 291 291 292 292 292 291 291 291 291 291 291 291 291 292 292 292 292 291 291 289 289 289 289 289 289 290 291 291 292 293 293 294 295 295 294 295 295 295 295 296 299 303 308 311 314
312 312 314 313 313 312 309 310 310 308 311 313 312 310 310 311 309 305 303 302 301 300 299 299 299 299 298 298 297 297 296 296 296 296 295 295 294 293 293 293 293 293 293 292 291 291 291 292 292 291 291 291 291 291 291 291 291 290 290 290 289 290 290 291 291 291 291 291 291 291 290 289 289 289 289 289 289 289 290 291 292 292 293 294 295 294 294 295 295 295 295 295 296 298 303 308 311
311 312 313 312 312 311 309 310 310 307 310 314 312 310 309 309 308 305 302 302 300 300 299 299 298 298 298 298 297 297 296 296 296 296 295 295 294 293 293 293 292 292 292 291 291 291 291 291 291 291 291 291 291 291 291 291 290 290 289 289 289 289 290 290 290 290 290 290 290 290 290 289 289 289 290 289 288 289 289 290 291 292 293 294 294 294 294 295 295 295 296 295 295 295 298 304 307
311 312 312 313 312 312 312 312 310 307 309 314 314 310 308 309 308 305 302 301 301 301 301 300 299 298 298 298 298 297 296 295 295 295 295 294 294 293 292 292 292 292 291 291 291 291 291 290 290 290 290 291 291 291 291 290 290 290 289 289 289 290 290 290 290 290 289 290 290 290 289 289 289 289 290 289 288 287 288 289 290 291 292 292 293 294 295 295 295 295 296 296 296 295 296 301 305
313 312 312 314 313 312 314 313 312 311 310 311 312 309 308 308 309 307 303 301 302 302 301 301 300 299 298 298 298 297 296 295 294 295 294 294 293 293 292 292 292 291 291 290 290 290 290 290 290 290 290 291 291 290 290 290 290 290 289 290 289 289 290 290 290 290 289 289 289 289 289 288 288 288 289 289 287 287 287 287 289 290 291 292 293 294 293 294 295 296 296 296 296 296 295 297 303
319 316 313 313 313 312 312 312 311 312 313 313 310 308 309 309 308 309 305 301 302 301 300 300 299 298 299 299 298 297 296 296 295 294 294 293 293 292 292 292 291 291 291 290 290 289 289 289 290 290 290 290 290 290 290 290 290 290 290 290 290 289 289 289 289 289 289 289 289 289 289 288 287 286 286 286 286 286 286 287 288 289 290 291 293 294 294 294 295 296 296 296 296 296 295 295 299
321 320 315 314 314 313 313 313 311 311 314 313 309 309 313 310 308 309 306 302 301 300 298 298 298 298 298 298 297 296 296 295 295 294 293 293 292 292 292 291 291 291 290 290 289 289 289 289 289 290 290 290 290 290 290 290 290 289 289 289 288 288 288 288 287 286 287 288 288 289 289 288 288 287 286 285 285 285 286 286 287 288 289 290 291 293 295 295 294 295 295 296 296 295 294 294 296
316 317 316 314 312 312 311 311 311 313 313 309 308 310 310 308 308 310 307 304 302 299 298 297 297 297 298 298 297 296 295 295 294 294 293 293 292 292 292 291 291 291 290 289 289 289 289 289 289 290 290 290 290 290 290 290 289 289 289 288 287 287 286 287 287 286 286 286 287 288 288 288 287 287 287 286 285 285 285 286 286 287 288 289 290 291 294 295 295 295 296 297 296 295 294 294 295
318 314 312 312 310 310 311 308 309 311 310 307 307 308 307 307 308 309 307 306 303 300 298 297 296 297 297 297 297 295 295 294 294 293 293 292 292 292 292 291 291 291 290 289 289 289 289 289 289 289 289 289 289 290 289 289 289 289 288 288 287 286 285 286 286 286 286 286 287 288 287 287 287 286 286 286 286 285 285 286 286 286 288 289 291 292 294 295 296 297 296 297 296 295 294 294 294
318 312 308 308 307 308 308 307 309 309 307 307 308 307 307 309 310 307 304 304 304 301 299 297 296 296 297 297 296 295 295 294 293 293 293 292 292 291 291 291 291 290 289 289 289 289 289 289 289 289 289 289 289 289 289 289 289 288 288 287 286 286 285 285 285 285 286 286 286 287 287 286 286 286 285 285 285 285 285 285 286 286 287 289 290 292 295 295 296 297 296 297 296 295 294 294 294
311 308 308 309 309 308 307 306 308 308 307 308 308 307 308 312 314 308 303 303 304 302 300 298 296 296 296 296 296 295 294 294 293 293 292 292 292 291 291 291 290 290 289 289 289 289 289 289 289 289 289 289 289 289 289 289 288 288 287 286 286 286 285 284 284 285 285 285 286 287 286 285 285 285 285 284 284 284 284 285 285 285 286 287 288 291 294 295 295 296 296 296 296 295 294 294 294
305 309 311 313 313 310 309 309 308 309 310 310 310 308 308 311 312 308 307 308 306 304 302 298 296 296 296 296 295 295 294 293 293 293 292 292 292 291 291 290 290 289 289 289 289 289 289 289 289 289 289 289 289 289 289 288 288 287 287 286 285 285 285 284 284 284 284 284 285 286 286 285 284 284 284 284 282 282 282 283 284 284 285 286 287 289 292 294 294 295 296 296 296 296 295 294 294
307 313 313 313 315 313 313 312 310 312 316 314 309 307 307 309 311 309 307 306 305 305 303 300 298 296 295 295 295 294 294 293 293 292 292 292 292 291 290 290 289 289 289 289 289 289 289 289 289 289 289 289 289 289 289 288 288 287 286 286 285 284 284 283 283 283 283 283 284 285 284 284 284 283 283 282 281 280 280 282 283 283 284 285 286 287 289 292 293 294 295 295 295 296 295 294 294
310 313 311 312 317 318 317 315 313 315 317 311 303 304 306 307 309 309 308 305 304 304 302 300 299 295 295 295 294 294 294 293 293 292 293 292 292 291 290 290 289 289 289 289 289 289 289 289 289 288 289 289 289 288 288 288 287 287 286 285 285 284 283 282 282 282 282 283 283 283 283 282 282 282 281 280 280 279 278 280 282 282 282 284 285 287 288 290 292 293 295 295 295 294 294 294 294
309 311 312 315 318 318 318 318 317 318 318 309 300 302 307 307 307 307 307 304 301 301 301 300 299 296 295 295 294 294 293 293 293 292 293 292 292 291 290 290 289 289 289 289 289 289 289 289 288 288 288 288 289 288 288 288 287 287 285 285 284 283 283 282 281 281 282 282 283 282 282 281 281 281 281 279 278 277 277 279 280 280 281 282 284 286 287 288 290 292 294 295 295 294 294 294 294
307 310 313 316 317 318 318 319 319 318 317 311 302 303 310 311 307 303 300 296 295 299 301 299 298 296 295 294 294 294 293 293 293 293 293 292 292 291 290 289 289 289 289 289 289 289 289 288 288 288 288 288 289 288 288 288 287 286 285 284 284 283 282 282 281 281 281 282 283 282 282 281 280 280 280 279 277 276 276 278 279 279 280 281 283 284 285 288 290 291 293 294 294 294 294 295 294
307 307 309 312 314 316 316 315 315 312 310 308 305 307 311 308 303 298 295 293 293 295 296 295 296 295 294 294 293 293 293 293 293 293 292 292 292 291 290 289 289 289 289 289 289 289 288 288 288 288 288 288 288 288 288 288 287 286 285 284 283 283 282 282 281 282 282 282 283 282 282 281 280 280 279 278 277 276 275 277 278 279 279 280 282 283 284 286 288 290 291 293 294 294 294 295 295
308 305 309 311 310 310 311 311 310 307 308 310 309 309 309 308 304 297 295 296 294 293 293 293 293 293 293 293 293 293 293 293 293 293 292 292 291 290 289 289 289 289 290 289 289 288 288 288 288 288 288 288 288 288 288 287 286 286 285 284 284 283 282 282 281 282 282 283 283 283 282 281 280 279 279 278 276 275 275 276 277 278 279 280 281 282 283 285 286 288 290 291 293 294 294 295 296
309 309 309 309 306 305 308 310 309 307 308 311 310 309 309 312 309 298 294 297 295 293 293 292 292 292 292 292 293 293 293 293 293 292 292 291 291 290 289 289 289 290 290 289 288 288 288 288 288 288 288 288 288 288 287 286 285 285 285 285 284 283 282 281 281 282 282 283 283 283 282 281 280 278 278 277 276 275 275 275 276 277 278 279 280 281 282 283 284 286 289 291 292 294 294 294 295
306 307 305 307 310 308 307 309 310 310 311 312 312 311 310 312 310 302 298 297 295 293 292 293 293 292 291 292 293 293 293 293 292 292 292 291 290 289 289 290 290 289 289 288 288 288 288 288 288 288 288 288 288 287 287 286 285 284 284 284 284 283 282 281 281 282 282 282 282 282 281 281 279 278 277 277 276 275 275 275 275 276 277 278 280 281 281 282 283 285 288 290 291 293 294 294 295
300 301 302 304 308 309 308 307 308 311 312 313 314 313 312 312 311 309 303 297 295 294 292 293 293 291 291 292 293 293 293 293 292 292 291 291 290 290 290 290 289 289 288 288 288 288 288 288 288 288 287 287 287 287 286 286 285 284 284 284 284 282 281 281 282 283 283 283 282 281 281 280 279 278 277 276 276 275 275 275 275 275 276 277 279 280 280 281 282 284 287 289 290 292 293 294 294
301 302 303 302 303 306 307 305 305 309 310 312 312 312 314 310 307 309 305 299 296 294 293 293 293 291 292 292 293 293 293 292 292 291 291 291 291 290 290 290 289 288 288 288 288 288 288 288 287 287 287 287 287 286 285 285 284 284 284 284 283 282 281 282 283 284 284 283 282 280 279 279 278 277 276 275 275 275 275 275 274 274 275 276 277 279 280 281 282 284 286 289 290 291 293 293 294
306 305 305 304 303 306 307 306 306 306 307 310 311 312 314 307 302 305 305 300 296 294 294 294 292 291 292 293 293 293 293 292 292 291 291 291 291 290 290 289 289 288 288 288 288 288 288 287 287 287 287 287 286 286 285 284 284 284 284 284 283 282 282 283 284 284 284 283 281 280 279 278 277 276 275 275 275 275 275 274 274 274 274 275 276 278 280 281 281 283 286 289 290 291 292 293 294
Wind_Speed
4 3 1 2 4 3 3 3 2 3 3 3 2 2 1 1 2 3 2 1 2 1 4 6 9 16 18 15 18 21 19 10 4 6 3 4 8 13 15 14 12 10 10 10 8 8 10 11 11 11 11 12 10 9 7 7 7 7 8 9 10 11 12 13 13 12 12 12 12 12 12 11 11 11 12 12 12 13 13 14 15 16 15 13 11 10 12 14 15 15 15 16 16 16 15 15 13
5 2 1 1 2 3 1 1 2 3 5 3 2 2 1 3 4 4 3 3 3 3 8 11 19 27 27 23 23 24 23 19 11 12 11 10 11 13 14 14 12 11 10 10 8 7 8 8 8 6 6 8 8 8 7 8 8 8 8 9 9 10 13 14 14 14 14 15 15 14 14 13 12 12 13 13 14 14 14 14 16 17 17 17 16 13 12 13 14 15 15 16 17 17 16 16 15
5 2 1 2 1 3 2 2 2 2 5 3 2 2 1 2 2 5 6 6 6 9 11 13 18 16 16 18 18 15 11 17 16 10 13 15 13 14 12 12 12 11 10 8 9 8 7 8 8 7 4 4 4 4 5 6 7 8 9 10 10 10 13 14 14 14 15 16 16 16 15 14 14 13 13 14 15 15 15 15 16 17 17 17 18 17 15 13 13 13 14 14 15 17 17 17 16
4 3 2 1 1 2 2 3 2 4 4 3 2 4 2 3 5 6 5 7 9 10 11 13 13 13 18 13 8 10 7 12 16 9 9 15 13 12 10 10 9 8 9 8 9 9 8 6 6 6 5 4 4 6 6 6 7 8 8 10 10 10 13 14 15 15 16 16 16 17 17 16 16 15 14 15 15 16 16 16 16 16 17 17 18 18 16 15 14 12 13 13 13 15 16 17 17
3 1 3 1 1 0 2 3 2 4 3 4 2 4 5 5 5 5 3 8 10 11 14 15 8 13 23 17 7 6 8 8 14 14 10 13 10 10 10 9 7 6 7 8 9 8 9 8 6 5 4 4 4 6 7 9 10 10 9 9 10 11 12 13 16 17 18 18 16 17 18 17 17 17 16 16 15 16 16 16 17 17 18 18 17 17 16 15 15 14 13 13 13 14 15 17 17
2 1 2 3 2 1 3 3 3 2 4 5 4 4 6 6 5 8 7 9 14 15 16 17 13 16 19 19 20 14 11 9 13 17 14 13 10 9 9 8 7 6 6 6 7 7 8 8 8 7 6 5 5 5 6 7 9 10 11 11 11 11 12 12 14 18 19 18 18 18 18 19 19 19 18 18 17 17 18 17 18 18 19 20 18 17 17 16 15 15 15 14 14 14 14 16 17
2 2 2 3 3 3 4 4 4 2 2 4 5 5 6 5 9 12 6 6 12 16 18 22 25 22 11 7 16 19 17 15 17 18 15 11 8 7 7 8 7 7 7 6 6 6 7 7 8 8 8 8 7 7 7 6 7 8 10 11 12 12 12 12 13 15 17 17 18 19 19 20 20 19 19 19 19 19 20 20 20 20 19 20 20 18 18 17 17 17 17 16 16 16 16 17 17
4 2 3 3 2 4 4 3 3 3 1 1 3 5 5 3 8 8 3 4 6 10 18 23 24 17 8 10 12 15 19 18 18 14 11 9 6 6 6 7 8 9 9 8 8 7 7 8 8 9 9 10 10 10 9 9 8 8 8 10 11 13 13 13 13 14 16 17 17 19 21 21 20 20 21 20 20 19 20 21 20 20 20 21 22 21 18 18 17 18 19 19 18 18 18 18 19
5 3 2 4 2 3 3 3 1 2 0 1 2 3 3 6 7 7 5 5 8 12 14 15 14 12 9 18 16 14 18 16 14 10 9 8 7 7 7 9 11 11 11 12 12 11 12 12 12 11 11 11 11 11 12 12 11 11 10 9 10 12 13 13 14 14 15 16 17 18 20 21 21 20 22 22 21 20 20 21 21 21 22 23 23 23 21 19 18 18 20 21 20 20 19 20 21
4 4 2 3 3 4 2 1 1 1 2 3 2 1 3 8 9 9 8 7 12 15 13 12 14 17 14 13 11 13 16 13 11 10 10 10 8 8 9 11 13 13 13 14 15 15 15 15 16 15 15 14 14 13 12 12 12 13 13 12 11 12 13 14 14 15 16 16 17 18 18 21 22 21 22 22 21 22 21 21 21 22 23 24 25 24 23 22 21 20 21 22 23 23 22 21 22
2 3 2 3 4 3 2 2 2 2 2 3 3 3 4 10 12 9 10 10 12 15 12 11 14 20 17 10 9 12 12 11 11 11 11 9 8 8 10 13 13 14 15 15 15 15 16 17 18 18 18 18 18 17 16 14 12 12 13 14 14 14 14 15 15 16 17 18 18 18 18 19 21 21 21 21 21 22 23 23 23 24 24 25 26 26 26 26 24 23 22 23 23 24 23 22 22
2 2 3 4 3 2 3 5 5 3 3 3 2 2 5 9 11 7 9 9 8 12 10 6 12 16 12 6 9 11 11 10 11 10 8 7 8 10 11 12 14 15 16 16 16 16 17 18 19 19 19 19 19 19 19 18 17 15 13 13 13 15 15 15 16 17 18 19 20 20 21 20 20 21 21 23 23 23 23 25 26 26 26 26 27 29 30 29 27 25 25 24 24 24 24 24 24
2 1 4 3 2 3 4 5 4 2 3 1 2 2 5 6 9 10 11 11 8 9 9 9 16 10 8 7 10 10 10 10 8 7 4 6 8 9 10 12 14 15 16 17 17 19 19 20 20 20 20 19 19 19 19 19 19 18 17 17 15 15 15 15 16 17 18 19 21 22 23 22 22 23 22 23 24 25 24 25 27 28 28 28 28 29 31 31 30 27 26 26 25 25 25 26 26
3 1 4 2 1 2 4 3 2 3 1 2 1 2 5 6 9 13 13 10 10 7 7 12 15 8 10 9 9 10 10 8 5 4 3 5 6 8 10 12 14 15 17 18 19 21 21 22 22 21 21 21 20 20 20 19 19 18 18 18 18 17 16 15 15 16 17 18 19 21 22 24 24 25 25 25 25 26 26 26 26 28 30 31 30 30 31 32 32 29 27 27 27 27 27 27 27
4 2 4 3 3 2 2 2 2 5 2 2 1 6 11 10 9 11 10 7 5 5 7 10 10 5 8 9 7 10 10 7 4 4 3 4 5 8 11 12 15 16 18 19 21 21 22 22 22 22 22 22 22 22 21 21 19 19 18 17 17 17 17 17 16 16 16 18 19 20 21 22 24 25 26 26 27 27 27 28 27 28 31 32 32 32 32 33 33 31 29 29 29 30 29 28 28
4 2 4 3 2 2 2 2 2 4 1 2 4 10 13 11 10 10 6 10 9 7 7 7 8 7 10 13 12 11 9 7 5 4 2 2 4 7 9 12 15 16 19 20 21 21 21 21 21 22 22 22 21 20 20 20 20 20 19 19 18 18 18 17 18 17 17 17 18 20 21 22 23 24 25 25 27 27 27 27 27 28 30 32 33 33 33 34 34 32 31 32 31 31 32 30 30
3 2 4 3 1 1 1 2 2 3 3 2 3 7 10 7 11 16 11 15 17 14 12 13 13 14 16 17 14 11 9 7 5 4 3 1 4 7 9 12 15 17 19 20 21 22 23 23 23 24 24 25 24 22 21 20 19 19 19 20 20 20 20 19 19 19 18 18 18 19 20 22 23 23 24 24 25 26 27 26 27 27 28 31 32 33 33 35 36 33 33 34 33 33 33 33 32
3 2 4 1 0 1 2 5 5 4 3 1 3 7 12 8 10 17 13 15 21 20 19 19 17 17 17 16 13 10 8 6 4 3 1 5 7 10 13 15 17 18 20 22 23 24 26 27 28 28 27 27 27 26 24 23 21 19 18 18 19 20 21 21 22 21 21 20 20 19 19 20 21 23 24 24 25 25 26 26 26 27 27 28 30 32 33 35 36 34 35 36 35 34 34 35 35
4 3 4 1 3 1 2 6 6 4 5 4 4 6 9 11 14 14 7 9 17 18 15 17 19 18 16 14 11 8 7 5 2 1 5 9 11 14 17 18 20 21 22 24 26 27 29 30 30 30 30 29 28 27 26 25 24 23 21 19 18 18 19 20 22 23 23 23 22 21 20 20 20 22 23 24 26 26 27 27 27 28 28 28 28 30 32 34 36 37 37 38 37 36 35 37 38
2 3 3 4 5 2 1 6 7 6 9 6 5 6 3 8 14 12 11 10 7 10 13 13 17 19 16 14 11 9 8 5 5 6 8 11 13 16 18 19 21 23 24 25 26 28 29 30 30 30 30 29 29 28 27 27 27 26 25 23 22 20 19 19 20 21 23 24 24 24 23 22 22 22 23 24 25 26 28 29 30 30 30 29 29 30 31 33 36 38 39 39 39 38 38 38 38
1 2 2 5 5 3 3 7 8 7 8 7 8 6 3 6 11 17 21 11 1 11 18 13 18 23 19 16 13 11 9 8 8 8 9 11 13 16 17 19 21 22 23 24 26 27 28 29 29 29 29 29 29 28 28 28 27 27 27 27 26 25 24 23 22 21 21 22 24 26 26 25 25 25 24 25 25 26 27 29 31 32 32 31 31 31 32 34 36 38 40 41 41 40 40 40 39
1 2 4 4 4 3 5 7 7 6 8 8 8 6 5 6 8 19 22 8 6 16 17 14 19 22 19 18 15 12 11 9 9 9 10 11 12 14 16 18 19 21 23 24 25 26 27 29 29 29 29 30 30 29 28 28 28 28 28 28 29 30 30 29 28 27 25 23 23 25 27 28 28 28 27 27 27 27 28 29 30 31 32 33 32 33 33 34 36 37 38 40 41 41 41 41 41
1 3 3 3 3 3 6 6 5 7 8 7 6 4 6 7 7 12 13 5 12 19 17 17 19 19 19 18 15 12 11 9 10 11 11 12 13 14 16 17 19 21 22 24 24 25 27 28 28 28 28 29 29 29 29 29 29 28 28 28 30 31 33 33 33 33 32 30 27 26 26 28 29 30 31 30 29 29 30 30 30 30 31 33 33 33 34 35 36 36 37 39 40 41 42 42 42
2 3 3 1 1 3 5 6 6 7 6 3 4 5 7 9 6 6 8 9 17 20 18 20 20 19 18 16 14 12 11 10 10 12 13 14 14 15 16 18 19 20 22 23 23 24 26 27 26 27 28 28 29 29 29 30 29 29 28 29 30 31 33 34 35 36 35 35 33 31 29 28 28 29 31 32 33 32 32 32 32 32 31 31 32 33 34 34 35 36 38 41 40 41 43 43 42
3 3 4 1 2 1 3 5 6 6 5 3 3 6 9 12 9 7 12 17 20 21 21 21 21 20 18 16 15 12 11 10 10 12 13 14 14 15 16 18 19 20 21 22 22 24 26 26 26 27 27 28 28 29 30 31 30 30 30 30 31 32 32 33 33 34 35 36 36 35 34 33 32 31 30 32 34 35 35 34 34 34 33 31 31 33 33 33 34 35 37 41 43 42 43 44 42
2 3 3 3 5 5 2 3 5 6 5 4 2 2 7 13 9 6 14 21 22 23 22 21 21 20 17 15 14 11 10 10 10 10 11 12 13 13 15 17 18 19 21 22 23 24 25 26 26 27 27 27 28 29 30 30 30 31 32 33 34 34 34 33 32 32 33 35 36 37 37 37 36 35 34 33 33 35 36 36 36 35 35 33 32 32 33 34 35 34 34 40 45 44 43 44 44
3 3 5 6 8 9 7 5 5 8 6 3 3 2 8 15 7 2 16 24 24 25 23 22 21 19 17 14 12 10 9 9 8 8 9 10 13 14 15 17 18 19 21 22 23 24 25 25 25 25 26 26 27 28 28 29 31 34 36 37 37 38 38 36 35 33 32 32 34 37 38 38 38 38 38 37 36 36 36 37 37 36 36 35 34 33 33 34 37 37 35 38 43 45 45 44 44
6 6 8 9 10 11 8 7 8 9 5 4 6 3 6 11 4 8 23 28 26 27 25 23 21 18 16 14 12 10 8 8 7 8 10 11 13 15 16 17 18 19 20 21 22 23 23 23 24 25 25 26 26 27 29 31 34 36 38 39 40 41 41 41 40 39 36 35 35 37 39 40 40 40 40 40 39 38 37 37 38 37 37 36 36 35 34 34 36 39 38 37 39 44 48 47 46
6 4 5 8 9 8 7 6 9 10 6 6 8 3 2 8 7 10 27 32 28 27 25 23 21 18 17 15 13 10 9 8 8 9 10 11 13 15 15 17 17 18 20 20 20 21 22 23 24 25 25 26 27 28 31 33 34 36 37 39 40 41 42 43 44 43 41 40 39 40 41 42 43 42 40 41 41 40 39 39 39 38 37 36 36 36 36 36 36 38 39 38 38 41 46 50 50
4 2 1 3 8 6 4 2 8 8 6 8 7 1 5 10 11 12 27 34 30 27 26 25 22 20 18 16 14 12 10 9 9 9 9 10 12 14 15 17 17 18 18 18 19 21 21 22 24 25 26 26 27 29 31 32 34 35 37 38 38 39 41 43 44 44 43 41 42 42 43 44 45 44 41 40 40 40 40 41 41 40 38 36 36 36 37 36 36 38 38 37 38 39 41 48 52
1 1 2 2 3 5 6 2 8 6 4 10 7 4 7 8 11 17 30 35 33 30 28 27 25 22 20 18 15 12 12 10 8 8 8 9 11 13 15 16 17 18 17 17 18 20 21 22 24 25 26 27 28 29 30 32 33 35 37 37 38 39 41 42 44 45 44 43 43 43 44 45 46 45 44 42 40 39 40 42 42 42 40 38 36 36 36 37 36 37 37 36 37 37 39 45 51
2 2 3 3 1 5 9 1 9 6 4 9 7 4 7 7 10 23 33 34 33 29 28 28 27 24 22 20 16 13 13 12 9 7 5 6 9 12 14 16 18 18 17 17 19 20 22 23 25 27 29 30 30 30 31 32 34 35 36 38 39 40 41 42 44 45 45 43 44 46 48 48 48 48 48 47 43 39 39 42 43 43 42 40 38 36 36 37 36 37 38 36 36 37 38 45 51
3 2 3 4 2 3 6 3 6 7 3 5 6 5 7 6 9 24 31 32 31 27 27 29 28 26 24 21 18 14 13 14 11 7 4 3 7 11 13 15 18 19 18 19 20 22 24 25 27 29 30 31 31 31 32 33 35 37 38 39 40 41 41 42 44 46 46 45 47 49 50 50 49 49 48 47 43 38 37 40 42 42 43 42 41 39 38 37 36 38 39 38 37 37 37 44 50
4 3 2 4 4 3 4 5 5 4 4 5 6 6 10 5 9 24 29 30 29 26 27 29 29 27 25 22 19 16 14 15 13 9 5 0 5 10 12 15 18 19 20 21 23 24 24 26 28 30 30 30 31 32 33 35 37 38 39 40 41 42 42 43 44 45 46 47 48 48 49 49 47 44 42 40 38 36 37 39 41 42 43 44 43 42 40 38 37 38 40 40 40 39 38 41 48
4 4 3 4 4 4 5 5 4 3 3 7 4 7 13 6 8 21 28 29 28 27 27 29 29 28 26 23 21 17 15 15 14 11 7 3 5 10 12 15 18 20 22 23 24 24 25 27 29 29 30 30 31 32 33 35 37 39 41 42 43 44 44 44 44 44 46 48 48 48 47 47 44 42 39 37 36 37 38 40 42 42 42 43 43 43 42 40 39 38 40 41 42 42 41 39 45
6 5 4 5 5 7 7 6 6 4 4 9 9 10 13 7 8 16 24 27 27 24 24 26 27 28 27 25 22 19 15 15 15 13 8 4 6 9 12 15 19 21 23 24 24 24 26 28 29 29 30 30 31 32 33 36 38 41 42 44 45 46 46 46 45 46 47 49 50 50 49 47 45 44 42 37 35 36 39 40 41 40 41 42 43 44 43 42 41 41 41 41 43 44 44 39 39
4 3 4 6 5 8 8 6 6 2 3 9 10 10 12 10 8 14 22 24 21 20 21 24 27 29 30 27 23 20 16 14 14 14 10 5 7 9 12 16 20 21 22 23 23 25 27 28 29 29 29 30 31 32 35 37 40 43 45 46 48 48 48 48 48 48 49 51 52 52 50 48 47 47 44 39 36 35 36 39 39 39 40 41 44 44 43 42 42 42 42 42 42 43 45 42 35
3 3 4 6 5 8 10 6 5 1 3 7 6 6 10 11 9 12 18 17 18 25 25 26 30 30 31 29 25 21 17 15 14 14 11 6 7 8 12 16 19 20 20 22 24 27 27 27 27 27 28 29 30 33 35 38 40 43 45 46 48 49 49 49 51 51 51 52 53 53 52 50 49 48 46 42 38 36 35 37 38 39 41 42 44 44 42 42 42 42 42 43 43 42 43 45 38
2 2 1 5 4 5 8 6 4 1 2 6 7 7 8 9 9 10 15 18 23 33 34 33 36 34 33 32 27 24 21 16 13 12 10 7 6 8 12 15 17 17 19 22 25 27 26 25 25 26 27 29 30 33 35 38 40 42 44 45 47 49 49 50 51 52 53 54 54 54 53 51 50 48 46 43 38 35 35 37 38 38 40 42 43 43 42 42 42 41 41 43 44 43 43 46 45
3 3 1 5 4 2 5 5 4 3 3 5 9 10 7 7 10 11 17 26 27 31 32 31 34 35 35 33 28 26 25 19 13 11 10 6 4 7 11 14 15 17 20 23 25 26 26 25 25 26 28 29 31 33 36 38 40 42 43 44 46 48 49 50 51 53 54 55 56 56 54 51 49 48 45 43 40 37 37 37 37 38 39 39 42 44 43 42 42 41 40 42 43 43 43 45 48
4 5 5 7 7 6 7 4 5 5 4 4 8 10 6 7 13 12 9 17 20 21 24 24 29 33 32 30 27 25 24 20 14 12 8 4 3 7 11 13 15 17 20 23 25 26 25 25 25 27 28 30 31 34 36 39 41 44 45 47 48 49 51 52 53 55 57 58 59 59 57 53 49 47 45 43 44 42 38 37 36 37 38 37 39 43 44 43 42 41 40 41 41 40 41 43 47
5 5 9 10 9 8 7 6 6 4 4 4 4 5 6 3 9 11 2 5 12 13 16 21 27 30 30 29 27 24 21 18 14 11 7 3 3 7 10 12 14 17 19 23 25 25 25 25 26 27 29 30 32 34 37 40 43 45 47 49 51 53 55 55 53 54 57 59 60 61 60 55 50 48 46 45 45 44 38 35 35 36 37 37 37 40 43 43 42 41 39 40 40 38 38 40 45
3 5 6 6 6 5 6 5 4 1 3 4 3 1 8 2 4 10 5 6 10 9 10 18 25 29 31 31 28 25 21 18 14 11 7 2 4 7 10 12 14 16 19 22 24 24 25 26 27 28 29 31 33 35 38 40 43 45 47 49 50 51 53 56 55 54 55 57 59 60 60 57 52 49 49 47 46 45 39 34 34 34 35 37 37 37 40 41 42 41 39 39 40 37 35 38 43
3 4 4 3 2 4 4 2 2 3 2 6 2 4 7 7 6 8 7 9 11 9 10 13 21 28 31 30 28 26 22 18 16 12 7 1 4 8 9 11 13 15 19 21 23 24 25 27 28 28 30 32 34 36 38 41 43 45 47 48 49 49 50 53 56 56 56 57 58 59 59 58 54 50 50 49 47 46 42 36 35 35 32 33 34 34 35 37 39 42 40 39 38 36 34 37 41
5 5 4 1 2 4 3 1 5 2 3 8 6 6 4 9 5 3 2 8 11 12 14 13 19 28 30 30 29 26 23 19 16 12 7 1 5 7 8 10 12 14 18 21 23 25 26 28 28 29 31 33 35 37 38 40 42 44 47 48 49 49 50 51 53 55 56 57 58 59 59 59 57 53 50 50 48 47 45 40 36 36 33 31 32 32 31 32 36 41 41 39 38 36 34 35 40
3 3 2 2 1 1 1 1 3 2 2 10 8 7 4 8 3 1 1 5 11 12 13 12 19 27 27 29 30 26 24 20 16 12 6 1 4 6 8 9 12 15 19 22 24 25 26 28 30 31 33 35 36 37 38 40 42 44 46 47 48 50 51 51 52 54 54 55 58 60 60 59 57 55 52 51 50 47 45 42 37 36 34 32 33 33 31 29 33 39 41 41 40 37 35 35 37
3 4 3 4 4 3 2 1 2 3 3 10 8 11 8 6 3 5 4 6 9 10 9 9 17 24 26 30 32 29 25 21 16 11 6 2 4 6 8 10 13 16 19 22 24 25 26 29 32 33 34 36 37 37 39 40 42 44 45 46 48 49 50 51 52 53 54 54 56 58 60 59 58 56 54 53 51 47 44 42 38 35 34 32 33 35 33 29 29 33 38 40 40 38 37 36 35
4 4 4 4 5 3 4 4 3 2 6 7 5 9 9 8 6 5 8 8 7 8 9 12 18 23 28 33 34 30 26 21 16 11 6 2 4 6 9 12 15 17 20 22 24 25 28 31 33 35 35 36 37 38 39 41 42 44 45 46 47 48 48 48 50 52 53 53 55 57 58 58 59 57 55 53 51 48 45 41 38 34 31 29 32 36 35 32 29 28 32 36 38 38 37 36 35
5 3 4 3 4 4 3 3 0 3 7 4 2 3 5 10 10 8 13 13 8 8 11 17 20 24 30 36 35 31 25 21 16 11 6 3 4 7 10 13 16 18 21 22 24 27 30 33 34 35 37 37 38 39 39 41 43 44 45 46 47 47 47 46 47 49 51 51 53 55 56 57 58 58 56 54 51 48 46 42 37 33 30 30 32 33 34 33 31 27 29 33 34 35 35 35 36
4 3 3 2 0 3 4 4 3 5 7 2 3 2 4 9 9 10 14 12 9 12 17 21 25 30 36 39 36 30 24 20 15 10 5 3 5 8 11 14 16 18 20 22 25 30 32 34 35 36 37 37 38 39 41 42 43 44 45 45 46 47 47 46 47 48 49 50 51 53 54 55 56 56 55 53 51 48 46 41 37 34 34 34 32 32 34 35 33 29 28 30 32 33 33 34 35
4 4 4 4 3 2 4 4 5 7 7 4 2 1 5 5 3 6 9 8 7 13 18 18 23 33 37 36 33 28 23 19 14 9 6 4 5 9 11 14 16 17 19 24 28 31 33 34 35 36 38 38 40 40 41 43 44 45 45 45 46 46 47 47 47 47 48 49 51 53 54 53 53 54 53 52 50 47 45 40 37 37 37 35 33 32 35 36 34 30 28 29 31 32 32 33 33
2 3 4 2 4 5 3 3 4 4 7 6 3 3 6 4 2 2 1 4 2 4 10 15 21 30 32 32 31 27 23 18 14 9 6 5 6 9 11 13 15 17 22 26 30 31 33 35 36 37 38 39 40 41 42 44 45 45 45 46 47 47 47 48 48 48 48 49 51 52 54 53 52 52 51 51 49 45 43 40 38 38 37 35 35 35 35 37 37 32 27 27 31 33 32 33 32
2 2 3 4 4 5 2 4 1 1 4 6 3 6 7 2 4 2 4 3 2 2 7 15 22 29 30 30 30 27 23 18 13 10 7 5 6 9 10 12 15 20 25 28 29 31 33 35 36 38 39 39 40 41 42 44 45 46 47 47 48 48 49 48 49 49 49 50 51 52 53 52 51 51 49 49 47 44 42 40 39 39 37 34 34 36 37 37 37 35 30 27 28 33 34 33 31
5 3 5 3 2 3 2 1 3 1 5 6 2 9 11 4 4 2 4 2 3 3 5 10 17 23 25 26 28 26 22 17 13 10 7 5 6 8 10 13 18 23 26 27 28 31 33 35 36 38 39 40 41 41 43 44 45 47 48 49 50 50 50 49 49 49 49 50 51 51 52 51 50 49 48 47 45 43 41 41 39 37 35 33 34 37 37 36 36 35 33 28 25 29 34 34 32
5 3 3 2 2 2 2 2 2 2 5 7 5 10 13 8 5 2 4 8 9 7 7 8 13 18 21 25 28 25 20 17 14 11 7 5 6 9 12 17 21 23 24 26 28 31 33 35 37 38 39 40 41 42 43 44 45 47 48 50 51 51 51 50 49 49 49 49 51 51 50 50 49 47 46 45 44 43 41 40 39 36 36 35 35 36 36 36 36 35 34 30 24 25 32 34 32
2 1 3 0 3 4 3 2 2 3 5 8 7 9 10 6 5 7 10 13 12 10 10 11 14 19 24 27 28 25 21 18 15 11 7 5 7 11 15 19 21 22 23 26 29 31 34 35 37 38 39 40 40 42 44 45 46 48 49 50 51 51 51 51 50 49 50 50 50 50 49 48 48 46 44 43 42 42 41 40 39 37 36 35 34 35 35 36 36 36 35 31 24 23 29 32 32
3 2 3 3 2 1 1 1 2 3 6 7 5 10 11 3 4 7 11 13 13 14 14 13 16 21 26 29 29 25 22 19 15 11 7 6 9 13 16 18 20 22 25 27 30 33 35 36 38 38 39 40 41 43 44 45 47 48 49 51 52 53 52 51 51 50 50 51 49 49 48 47 46 44 43 42 41 41 40 39 39 37 35 35 35 35 36 36 36 36 36 32 24 22 27 31 32
6 6 6 7 6 2 2 5 3 3 6 6 3 12 14 3 3 6 8 9 11 14 16 13 16 24 27 29 29 25 22 19 15 10 7 7 10 14 16 18 21 23 26 29 31 33 35 37 38 38 39 41 42 44 45 46 47 48 49 51 52 53 52 51 52 51 51 51 50 49 47 45 44 43 42 41 40 40 40 39 39 39 38 37 37 37 37 37 37 36 36 34 26 21 25 30 32
Wind_Direction
36 48 127 165 188 167 156 173 97 19 72 83 23 77 312 273 106 78 59 59 109 357 85 78 60 93 102 106 108 84 52 35 44 82 83 356 22 16 18 15 8 3 358 12 19 30 29 22 17 14 10 8 11 6 356 347 339 335 332 328 323 310 300 294 288 286 286 283 278 276 277 279 283 289 292 295 299 301 303 303 303 305 307 302 295 289 284 276 267 261 260 257 248 244 242 247 250
25 26 161 221 238 179 155 110 88 15 55 68 331 124 235 333 51 117 141 138 144 112 108 77 78 99 102 95 88 74 47 37 69 89 57 40 43 27 28 23 12 2 354 2 5 15 14 4 5 10 11 0 359 360 352 341 324 312 312 308 313 317 309 305 301 292 292 287 280 279 277 276 281 286 283 286 293 295 296 296 297 299 303 303 300 296 290 283 273 267 262 259 255 248 241 242 244
17 15 192 250 293 135 131 55 107 74 76 107 268 261 327 40 112 189 187 141 123 111 112 80 74 86 87 70 60 73 57 41 60 80 42 31 30 20 25 28 15 355 345 349 352 355 353 349 346 344 349 338 329 328 312 308 300 298 299 293 292 306 306 305 308 300 294 289 284 280 273 270 275 282 277 279 287 289 290 290 291 292 294 297 299 297 294 288 277 270 267 264 259 255 248 244 242
14 38 40 237 216 96 84 56 123 109 118 160 223 268 272 169 177 212 193 118 104 101 109 88 69 60 71 61 52 79 53 36 41 52 35 21 22 12 11 21 16 348 344 355 354 348 349 350 340 335 329 306 279 273 271 272 273 277 282 288 287 292 296 295 299 296 291 286 283 279 273 267 267 274 270 273 280 283 285 285 285 286 287 289 292 295 293 289 284 277 270 267 260 256 253 250 246
12 77 24 339 190 81 82 67 93 97 170 178 153 256 249 200 182 198 159 103 83 81 108 106 93 74 71 53 55 61 19 39 40 49 52 25 20 4 1 8 3 349 356 3 359 353 353 351 340 331 318 305 279 268 267 269 269 267 265 272 278 284 287 289 291 289 288 285 284 284 283 278 275 278 273 270 273 275 278 279 281 282 282 282 285 289 288 282 282 282 274 268 261 257 255 253 250
26 118 37 58 89 88 90 71 83 85 215 165 146 241 236 217 164 145 119 99 76 78 114 114 114 99 80 63 63 56 38 61 50 52 58 39 29 11 5 360 350 354 6 359 349 347 347 343 335 329 320 311 297 287 275 269 268 265 264 262 266 273 276 282 286 286 289 290 290 289 286 282 282 286 282 278 279 279 277 278 279 279 280 280 280 281 280 274 273 275 273 268 264 261 258 255 251
47 106 62 80 63 43 91 102 129 142 233 156 159 201 225 212 143 136 129 112 78 79 111 111 111 100 83 88 63 58 68 77 68 61 61 53 37 23 14 4 354 358 10 360 351 343 335 329 322 321 319 316 313 310 303 296 284 271 266 262 262 263 264 271 278 282 286 289 289 287 282 277 280 284 281 280 283 285 283 284 283 280 280 280 279 277 274 271 267 267 268 266 263 260 257 258 255
49 75 66 89 41 30 93 111 161 174 120 172 180 188 208 167 131 137 134 130 84 80 114 116 107 89 63 97 72 63 79 78 75 71 66 63 41 37 27 19 15 20 23 14 12 4 356 350 341 332 325 324 321 318 315 313 307 295 278 265 262 262 262 263 267 275 281 283 281 281 279 275 275 278 280 281 279 279 281 284 285 282 281 281 280 276 271 266 263 263 266 266 262 258 255 256 257
47 53 65 84 75 34 71 76 103 186 204 276 244 201 152 89 103 124 106 95 89 83 120 136 108 100 98 89 77 68 80 80 79 79 73 66 56 52 34 38 38 39 37 29 30 24 24 21 14 7 357 349 338 329 322 316 313 310 302 285 270 265 265 264 263 268 277 281 278 280 283 278 274 274 276 278 277 277 278 279 282 283 283 282 280 276 271 265 262 262 263 265 264 260 256 254 256
46 52 100 86 78 57 57 84 80 147 230 247 257 306 86 93 99 114 112 94 95 88 105 123 105 116 115 88 75 67 79 86 84 79 74 71 64 53 39 48 48 48 45 40 40 35 37 34 31 29 25 20 9 358 342 328 317 311 310 304 294 280 273 269 265 265 271 277 279 283 287 283 281 279 273 272 275 278 279 278 278 281 283 283 280 276 271 267 265 263 262 262 262 261 258 255 254
24 35 97 80 70 89 148 172 128 162 253 310 333 1 88 115 103 98 99 94 102 102 99 97 102 112 102 83 76 79 94 93 84 80 77 75 60 49 48 52 50 49 48 44 42 40 40 37 35 32 31 30 25 20 11 360 344 327 315 308 304 297 288 280 273 267 267 270 275 281 285 285 287 287 282 277 276 278 280 280 279 279 280 281 279 275 270 269 268 265 262 260 261 261 260 257 255
358 350 65 91 107 160 165 151 158 202 295 350 349 29 97 116 108 103 92 84 94 95 77 97 129 114 92 82 86 97 109 96 90 88 77 68 51 50 54 54 53 49 46 42 38 36 34 31 30 28 26 26 25 24 20 16 10 0 346 330 316 306 299 292 284 275 270 269 270 273 277 280 282 282 283 284 283 280 279 279 280 280 280 279 279 277 273 270 268 264 263 261 259 259 259 258 256
46 131 71 100 166 150 128 138 173 184 333 336 188 94 83 93 111 118 97 66 51 70 56 118 143 118 99 110 97 107 106 99 100 87 59 48 52 56 55 53 50 45 42 36 32 30 26 22 20 19 17 15 16 16 15 15 13 10 6 359 348 333 318 304 295 287 280 274 270 269 270 272 274 274 276 282 285 283 281 279 278 279 280 280 279 278 275 270 265 260 262 264 261 258 257 257 257
40 130 89 108 31 114 131 127 175 124 35 288 218 149 77 65 108 122 111 70 36 62 78 131 149 114 121 129 95 109 109 111 108 75 53 53 63 59 52 49 44 40 37 32 30 28 24 20 16 14 11 8 7 6 6 4 4 4 3 3 360 355 345 331 314 300 291 284 279 274 271 270 270 271 271 273 277 278 280 281 278 278 280 279 278 275 273 270 265 262 264 266 264 261 257 256 257
34 64 87 98 28 33 119 124 152 121 154 289 129 125 80 63 116 122 111 101 58 103 119 134 151 124 151 167 120 122 122 129 124 93 94 78 72 59 51 47 42 38 36 33 31 28 25 20 14 12 9 6 3 0 358 354 353 351 350 350 350 351 350 348 339 325 308 295 287 283 279 276 273 271 270 270 272 274 276 279 279 277 277 278 278 275 272 270 268 267 268 268 266 263 260 257 257
35 57 69 73 38 47 77 88 93 100 203 247 150 128 82 60 111 103 93 129 104 113 143 115 116 129 149 147 134 138 135 135 134 136 158 104 67 54 50 46 43 39 36 32 29 25 21 16 12 10 6 4 1 357 353 347 345 342 340 337 337 337 337 339 340 338 330 316 301 291 286 282 280 276 273 271 271 272 273 274 274 275 276 277 277 275 272 268 266 265 267 268 267 265 262 259 257
26 65 63 54 39 90 135 157 136 139 222 249 181 143 101 70 96 100 110 127 106 96 112 100 101 119 125 128 136 144 137 143 156 182 213 69 44 40 42 40 38 36 32 26 24 20 16 12 9 6 3 1 358 355 350 344 340 335 332 329 327 326 325 326 326 329 330 329 322 310 299 290 286 284 281 277 273 272 273 272 270 271 274 277 277 275 270 267 264 262 264 267 267 265 264 263 260
36 102 71 42 225 112 186 178 177 153 160 218 214 151 126 127 120 116 108 101 102 96 97 106 112 116 120 130 141 146 149 168 186 211 246 51 47 43 41 37 32 29 26 21 19 16 13 10 7 4 2 359 356 353 350 347 344 337 332 326 321 318 317 318 317 319 320 321 322 321 316 307 298 292 289 286 282 277 275 276 276 272 271 274 276 276 272 268 267 263 262 265 266 265 264 264 262
61 109 69 242 206 199 214 165 163 142 154 179 197 172 140 147 149 140 127 107 108 99 97 112 118 122 133 143 150 159 169 176 164 93 66 60 52 47 41 35 30 26 22 19 17 14 12 9 6 4 1 358 356 353 351 349 348 345 342 335 329 322 316 314 312 313 313 314 314 314 315 313 310 303 297 293 289 283 277 276 279 278 274 272 272 274 273 268 265 263 261 263 265 264 263 263 263
71 91 64 241 208 165 195 145 137 148 163 156 163 189 137 141 160 154 144 143 126 126 139 135 134 142 147 153 161 164 161 146 108 78 69 62 52 45 38 33 29 25 22 18 16 13 10 8 6 4 1 360 358 357 355 354 352 350 348 346 342 337 330 322 315 312 310 312 312 310 310 309 308 306 302 299 294 288 282 277 277 280 278 275 272 270 270 267 262 260 260 261 262 263 262 261 261
6 124 158 223 193 147 167 139 130 146 158 151 156 167 103 124 166 161 143 130 246 177 168 168 161 158 155 156 158 154 146 127 107 86 74 64 52 45 38 35 29 25 22 18 15 12 9 7 6 4 1 359 359 359 359 358 357 354 352 351 350 347 343 337 330 323 317 314 313 311 310 308 306 304 302 301 300 297 291 285 281 280 280 279 277 275 271 269 264 261 261 260 260 261 262 261 261
346 225 207 197 162 148 165 142 131 147 144 140 147 148 150 136 138 157 153 141 207 186 177 177 168 161 159 156 151 147 141 126 109 90 74 63 52 45 39 35 30 24 20 17 14 11 9 6 5 3 359 358 358 359 360 359 358 357 356 355 353 351 349 345 340 335 330 324 320 316 310 307 305 305 305 302 300 300 298 295 289 284 283 283 283 282 277 273 270 266 264 261 261 262 262 262 261
296 277 251 181 142 133 165 151 134 157 147 135 145 155 171 141 109 158 173 190 181 174 168 163 158 156 156 153 151 147 138 124 104 82 69 62 52 46 39 34 29 24 19 16 14 11 8 6 4 1 358 357 357 358 358 358 358 358 357 355 353 352 350 348 345 342 338 334 329 325 320 313 308 306 305 304 302 300 300 299 296 291 288 286 286 286 283 279 275 270 268 264 262 263 262 262 261
167 259 280 209 147 123 160 153 136 151 130 106 154 168 185 164 137 160 167 161 161 160 159 157 154 153 155 151 147 142 132 119 99 79 69 62 54 47 41 35 30 24 20 16 13 10 8 6 3 360 358 356 356 356 354 354 356 356 354 352 351 349 348 346 345 343 341 339 336 332 329 324 318 311 306 304 303 301 300 298 297 296 293 289 286 285 284 284 280 276 275 269 262 263 262 260 259
152 227 282 301 302 70 148 149 145 142 102 85 167 175 199 188 164 141 143 149 153 155 157 158 156 155 156 152 143 136 128 114 98 82 68 61 55 48 40 34 29 23 19 15 12 9 7 5 2 359 357 355 353 352 351 353 354 354 353 351 349 346 345 343 342 341 339 339 338 336 333 329 326 323 316 309 304 301 300 298 296 296 296 293 288 284 283 285 284 280 280 277 267 263 263 260 258
199 223 302 322 302 311 268 197 170 168 142 116 134 173 196 180 156 129 152 157 157 159 161 161 161 160 158 153 144 137 129 115 100 83 66 58 50 43 38 32 25 20 16 12 9 7 6 4 1 359 356 353 350 350 353 355 356 356 355 352 351 348 346 344 340 337 336 335 335 336 334 330 327 324 322 318 312 305 300 297 297 296 295 296 293 288 284 283 283 279 280 282 272 260 259 260 258
290 295 310 299 290 298 274 233 187 173 179 153 132 192 186 172 165 188 171 166 166 165 163 166 167 166 162 157 154 148 135 119 103 84 67 54 45 39 35 29 23 19 14 10 7 5 4 3 1 359 356 353 351 352 355 357 357 356 354 352 350 349 347 345 343 339 335 333 333 333 332 330 327 323 320 319 317 313 306 299 296 296 295 295 295 292 287 283 283 280 276 279 277 267 260 258 258
308 319 314 301 307 301 260 218 192 172 186 181 135 138 181 175 211 219 182 172 174 172 166 171 175 172 168 167 166 159 146 128 105 84 67 51 45 39 33 29 24 18 12 8 4 1 1 1 359 358 355 353 352 354 355 355 354 353 350 348 346 346 346 346 345 342 338 335 333 332 330 329 327 323 319 316 315 314 312 307 300 297 295 295 294 292 289 285 282 281 277 275 279 277 266 256 256
298 327 315 303 341 319 252 205 189 177 187 177 128 79 224 206 239 212 182 175 176 177 171 174 178 176 174 173 172 166 158 138 107 86 67 52 45 38 34 29 24 18 12 6 359 357 359 357 355 355 352 351 352 352 353 352 351 349 346 345 344 344 344 345 344 342 340 337 334 332 330 328 326 323 319 315 312 310 311 310 306 301 297 297 295 292 290 286 284 282 280 277 275 276 271 261 255
283 333 4 308 357 325 268 154 174 176 189 180 150 281 251 224 232 197 179 177 177 178 177 178 179 177 176 176 176 171 161 141 111 92 70 53 41 33 31 28 23 18 11 1 354 354 356 354 353 352 350 349 349 349 349 348 347 345 342 341 341 341 341 342 342 341 339 336 332 329 327 326 324 323 320 316 312 310 309 308 308 305 302 299 296 295 292 289 286 283 282 280 276 277 278 271 260
251 352 36 7 4 285 301 64 155 167 201 175 154 259 254 244 233 192 182 184 181 179 180 181 181 179 179 178 178 172 160 145 122 105 79 49 32 27 27 25 22 17 10 359 353 354 355 354 353 351 348 345 345 346 347 345 343 341 340 339 339 339 340 340 339 339 338 336 332 327 325 323 321 319 317 315 311 307 306 305 305 305 304 303 299 297 296 292 288 284 282 282 279 279 280 276 266
27 16 324 333 152 268 308 315 168 183 210 169 154 255 260 262 225 191 185 187 184 183 183 184 184 182 182 181 179 175 165 155 140 124 92 41 20 20 22 20 19 16 10 1 357 357 356 355 353 348 344 342 343 346 345 343 341 339 338 338 338 338 338 338 338 338 337 334 329 325 322 319 317 314 312 312 308 303 302 302 303 304 304 303 301 299 298 296 292 286 282 280 280 281 281 276 265
2 47 280 273 216 277 316 318 206 206 201 188 192 237 268 275 206 187 186 187 186 185 185 185 186 185 183 183 183 180 172 167 160 149 121 44 8 8 15 15 14 12 8 4 2 360 358 355 351 346 343 342 344 345 344 342 341 340 339 338 337 337 337 337 337 336 333 329 326 323 321 318 315 314 312 311 307 300 300 301 300 302 302 302 302 300 298 297 296 292 284 279 278 279 282 275 261
329 7 319 257 233 253 286 310 290 199 192 234 214 226 256 260 178 186 190 190 189 189 190 188 187 187 185 185 187 185 177 173 170 170 170 144 347 356 8 10 9 8 5 3 2 0 358 354 349 346 344 344 344 344 342 341 340 340 339 338 337 336 336 336 336 334 332 329 328 327 323 320 318 317 318 317 310 300 299 302 300 299 300 300 300 299 298 297 296 295 290 283 277 275 280 278 263
276 293 304 289 272 254 245 276 291 169 212 248 227 244 255 252 181 196 197 194 195 197 194 190 188 187 185 188 190 188 181 177 179 186 193 226 320 345 1 5 5 4 2 0 360 359 356 353 349 345 344 344 344 342 339 338 339 340 339 337 336 335 335 335 334 333 332 331 331 330 327 324 321 318 317 317 313 305 301 301 299 296 296 298 297 297 298 298 297 296 295 288 280 272 271 280 272
233 254 249 264 275 272 255 250 254 205 231 255 238 246 256 245 204 205 203 199 202 204 197 192 191 189 189 192 193 189 181 179 186 196 204 242 303 337 355 1 2 0 358 357 358 358 356 352 348 345 344 344 343 340 339 339 339 340 339 338 337 336 335 334 334 334 334 333 333 334 332 327 321 315 312 310 307 306 303 300 298 295 294 295 294 295 296 298 298 297 298 294 288 278 266 272 280
219 250 245 248 242 271 273 260 272 210 202 259 243 242 258 249 223 212 205 201 204 206 200 197 195 192 193 194 194 189 181 181 190 202 211 248 293 331 353 357 359 358 357 357 357 358 355 351 347 345 345 344 343 341 341 341 341 341 340 338 337 336 336 334 334 335 335 336 336 336 333 327 322 318 314 310 301 297 298 299 299 295 294 294 291 293 295 295 297 297 299 298 294 290 275 265 277
218 230 262 278 232 256 274 271 290 200 178 267 269 255 260 253 246 221 201 196 207 206 201 200 198 196 197 197 195 189 180 180 190 203 214 243 285 330 354 357 359 358 357 357 357 356 353 350 348 347 346 344 344 343 341 341 341 341 339 338 336 335 335 335 334 335 336 336 336 337 334 329 325 321 317 314 304 292 292 296 298 296 294 293 291 291 292 292 294 295 298 299 296 297 287 267 268
203 190 267 290 253 268 291 299 323 35 183 274 288 274 259 256 258 232 202 201 213 211 207 205 200 196 197 197 195 188 181 180 186 199 212 236 286 339 355 357 359 358 358 357 356 356 353 351 350 348 346 344 344 342 341 340 339 339 337 336 335 334 333 333 333 334 335 335 336 337 335 331 326 322 317 315 309 298 293 293 293 295 293 292 292 291 290 289 291 293 294 299 298 298 293 273 261
208 181 202 269 276 296 285 310 344 324 267 263 279 275 256 251 258 248 215 209 216 218 215 213 206 200 199 198 196 190 186 187 189 192 202 232 299 347 355 357 360 358 358 358 357 356 353 351 349 347 345 344 343 341 339 338 336 336 335 334 333 332 331 332 332 333 334 334 335 336 335 331 326 323 319 315 310 301 293 289 289 291 292 293 293 289 287 287 288 290 291 295 297 297 296 282 264
258 205 203 247 269 251 245 294 339 320 305 280 292 289 257 218 236 252 226 209 219 219 213 213 210 206 202 199 196 193 191 195 196 191 199 236 318 352 356 358 359 359 358 357 356 353 351 350 348 346 344 342 341 339 338 337 336 334 334 333 332 332 331 332 333 332 334 334 334 335 335 332 327 323 320 314 310 305 294 285 286 290 291 292 294 289 285 285 285 286 289 291 292 294 297 292 276
298 237 214 231 252 256 267 326 353 341 324 314 353 311 272 206 225 250 262 199 223 211 203 207 206 203 200 199 196 191 192 198 199 195 200 237 340 356 358 360 359 358 357 355 353 350 349 349 347 344 342 341 340 338 337 336 335 335 334 334 333 332 332 332 332 331 331 333 333 334 334 333 329 324 320 315 310 309 301 286 284 290 290 289 292 292 287 282 282 283 286 288 288 290 296 296 285
295 257 205 209 229 254 283 336 353 290 271 293 63 270 273 275 219 243 223 214 226 207 205 208 202 199 198 198 193 187 191 196 196 197 201 229 351 358 0 1 359 356 353 351 349 348 348 347 345 343 340 339 339 337 337 335 334 333 333 333 331 330 329 329 331 329 329 330 331 331 331 330 329 325 322 318 311 309 306 290 282 287 292 290 290 291 288 282 279 281 282 282 286 288 291 295 288
241 245 130 127 202 251 271 316 285 245 277 291 224 166 271 275 245 244 208 212 234 220 217 213 202 202 200 197 191 189 195 196 193 196 198 225 357 1 1 1 358 353 349 347 346 346 347 345 342 341 339 339 338 337 335 333 332 332 332 331 329 328 327 326 328 328 328 329 329 329 329 328 328 325 322 319 313 309 307 297 283 280 287 290 288 287 285 282 277 277 277 277 283 285 287 294 290
245 214 140 135 218 233 254 267 266 289 29 294 250 147 258 272 253 289 196 215 242 230 218 212 203 204 200 194 190 191 196 196 196 197 195 249 357 1 1 0 354 348 345 344 346 346 345 343 341 341 340 339 338 336 333 331 331 331 331 329 328 327 326 325 325 326 327 328 327 328 328 327 326 325 322 319 315 310 306 303 290 277 279 285 287 286 281 280 278 274 274 276 279 283 285 291 290
227 165 125 354 25 207 266 276 275 23 57 266 252 154 217 270 223 117 37 234 244 235 221 212 205 205 199 190 188 192 194 193 197 195 193 292 354 2 360 357 350 345 344 345 345 344 343 343 343 342 341 339 337 334 331 330 330 331 330 328 327 326 326 325 324 324 326 326 326 327 326 325 324 323 321 318 315 310 306 305 297 281 276 281 287 286 280 281 282 274 271 275 276 279 284 285 287
119 76 24 355 1 25 34 34 69 57 260 255 234 178 197 272 242 176 196 220 221 220 211 201 204 205 197 190 190 193 192 191 192 191 199 289 351 359 355 352 348 345 345 345 344 343 343 343 342 341 340 337 335 332 331 330 330 330 330 328 326 325 325 325 324 324 325 325 325 325 324 323 321 320 319 317 314 311 306 304 300 286 274 277 287 288 281 280 284 278 271 273 275 274 280 283 281
87 64 36 355 326 4 24 356 48 83 254 259 223 188 196 241 246 207 228 239 218 207 198 194 202 200 193 191 192 193 192 191 188 189 205 275 342 352 352 348 346 345 344 344 342 341 342 341 341 339 338 336 333 331 330 330 330 330 329 328 326 324 323 323 323 323 324 324 323 323 321 320 319 318 317 316 313 310 306 304 300 290 278 279 288 289 284 281 282 283 276 271 273 273 274 281 279
76 80 60 15 323 351 352 300 13 218 247 254 150 172 215 242 246 237 241 246 234 214 204 202 198 188 188 192 192 191 190 189 189 193 217 280 334 345 348 345 344 343 342 341 340 340 341 340 340 338 336 334 331 331 330 330 330 330 329 327 325 324 323 322 321 321 322 322 321 319 318 316 316 316 315 313 311 308 306 304 299 291 284 281 282 285 286 285 280 283 282 269 268 274 273 278 281
134 141 134 150 8 337 294 272 277 274 269 260 117 124 258 264 258 236 238 251 250 229 221 215 198 185 188 192 189 188 188 188 192 199 228 279 330 340 344 344 342 340 338 339 340 340 340 340 339 336 333 332 331 330 330 329 330 330 328 326 324 323 322 322 321 320 321 321 319 316 315 313 313 313 313 310 308 306 303 303 297 289 282 276 275 281 285 283 278 282 286 272 263 271 276 277 281
176 158 140 160 159 209 259 261 269 292 299 270 151 144 235 252 268 235 249 282 277 236 223 210 193 187 188 187 183 185 186 187 194 204 230 274 322 336 341 341 338 336 337 339 340 340 340 339 336 334 332 331 330 329 329 329 329 329 327 325 324 323 322 323 322 321 320 320 319 316 313 312 311 311 312 309 306 305 302 301 296 288 282 277 275 280 281 276 274 279 288 279 263 265 275 276 279
210 126 117 186 183 187 238 243 230 286 309 276 216 220 227 225 273 272 315 335 341 213 190 168 171 179 180 180 181 184 185 187 195 208 230 268 315 332 338 337 333 335 338 339 340 339 338 336 334 332 331 330 330 329 328 329 328 328 327 326 325 323 323 324 323 322 321 319 319 316 314 312 311 311 311 308 305 303 302 300 295 290 285 279 274 275 277 274 273 277 286 285 270 262 270 276 276
163 130 186 223 175 145 205 281 309 68 282 272 243 263 275 301 287 296 70 57 56 112 158 155 164 174 176 179 181 183 186 189 198 212 232 267 312 330 333 332 332 336 338 338 339 338 336 334 332 331 331 330 329 329 328 328 328 328 328 327 326 324 324 325 324 323 322 321 320 318 316 314 312 311 311 308 304 302 301 299 295 291 286 281 277 274 274 274 275 277 280 286 279 265 265 274 275
133 182 220 212 122 95 115 267 325 72 251 266 251 270 277 276 279 327 73 159 213 190 176 162 168 177 180 182 183 185 188 193 204 216 232 270 314 327 328 332 335 337 338 338 337 335 334 333 332 331 330 329 329 329 328 328 328 328 328 328 327 325 324 325 325 324 322 321 321 319 317 315 313 312 310 308 304 302 301 300 297 292 287 283 279 275 274 275 277 276 276 280 283 269 263 271 275
140 207 241 139 164 251 126 149 264 253 262 269 271 283 276 247 230 236 191 206 207 195 186 180 185 187 186 186 185 187 190 196 206 214 230 269 311 326 331 335 337 338 338 337 335 333 333 332 331 330 329 328 329 329 328 328 328 328 328 328 327 325 325 326 326 325 322 320 320 319 318 316 314 311 309 307 304 302 301 300 297 292 287 282 277 277 277 276 277 274 274 278 281 274 266 269 275
90 333 313 45 180 208 183 158 207 229 265 274 286 299 283 236 187 198 204 204 195 184 187 197 200 195 190 188 186 187 192 199 206 212 231 273 313 330 335 337 337 337 337 335 334 333 333 331 330 329 328 328 329 329 328 328 328 328 328 328 327 326 326 327 326 325 324 322 321 320 318 316 315 311 309 307 304 302 300 299 297 292 289 285 279 280 278 276 275 272 273 277 280 281 272 271 274
160 193 237 238 202 193 253 221 167 202 259 269 282 281 272 228 162 195 197 201 195 181 188 203 202 196 194 191 188 189 195 201 207 215 239 288 319 331 334 335 336 336 336 335 334 333 332 331 330 329 329 329 329 329 329 329 328 329 329 328 328 327 327 327 327 326 326 325 323 321 318 316 314 311 309 307 305 303 301 298 297 293 289 285 279 277 275 274 274 269 269 271 275 282 278 275 274
177 186 197 205 201 189 274 254 201 181 237 235 250 273 268 219 166 203 186 195 197 184 191 203 198 195 194 192 192 195 200 203 208 226 261 302 322 330 331 333 335 335 334 334 333 332 331 331 330 330 330 330 330 329 329 329 329 329 329 328 328 328 328 328 328 328 327 327 325 322 319 317 314 312 309 307 305 304 302 298 296 292 288 284 278 274 270 270 271 267 264 264 268 277 280 280 275